EW8215 Weather Reports


Display with metric or nautical units.
time (UTC)temp
F
wind
direction
speed
MPH
gust
MPH
rain 1hr
in
rain 24hr
in
rain mn
in
humidity
%
barometer
mb
20260904020410 83 165 6.0 9.0 0.00 0.00 0.00 73 1012.8
20260904015908 83 146 6.0 12.0 0.00 0.00 0.00 73 1012.7
20260904015404 83 147 5.0 9.0 0.00 0.00 0.00 72 1012.5
20260904014902 83 175 7.0 9.0 0.00 0.00 0.00 72 1012.4
20260904014358 83 171 6.0 10.0 0.00 0.00 0.00 72 1012.4
20260904013853 83 195 5.0 7.0 0.00 0.00 0.00 72 1012.3
20260904013349 83 155 3.0 5.0 0.00 0.00 0.00 73 1012.1
20260904012845 83 126 3.0 3.0 0.00 0.00 0.00 73 1012.1
20260904012340 83 133 2.0 3.0 0.00 0.00 0.00 73 1011.9
20260904011839 83 140 2.0 3.0 0.00 0.00 0.00 73 1012.0
20260904011334 84 151 5.0 7.0 0.00 0.00 0.00 73 1011.9
20260904010829 84 157 4.0 5.0 0.00 0.00 0.00 73 1011.9
20260904010326 84 139 6.0 9.0 0.00 0.00 0.00 74 1011.9
20260904005821 84 139 3.0 5.0 0.00 0.00 0.00 74 1011.9
20260904005317 84 131 3.0 3.0 0.00 0.00 0.00 74 1011.9
20260904004817 84 133 6.0 7.0 0.00 0.00 0.00 74 1011.9
20260904004313 84 160 3.0 3.0 0.00 0.00 0.00 73 1012.1
20260904003808 85 117 4.0 5.0 0.00 0.00 0.00 73 1012.1
20260904003304 85 119 3.0 3.0 0.00 0.00 0.00 72 1012.1
20260904002759 85 126 7.0 10.0 0.00 0.00 0.00 72 1012.4
20260904002255 85 121 4.0 9.0 0.00 0.00 0.00 71 1012.0
20260904001754 85 151 10.0 12.0 0.00 0.00 0.00 71 1012.2
20260904001249 85 154 4.0 7.0 0.00 0.00 0.00 71 1012.3
20260904000744 86 131 10.0 12.0 0.00 0.00 0.00 70 1012.2
20260904000240 86 151 11.0 15.0 0.00 0.00 0.00 70 1012.2
20260903235738 86 134 8.0 14.0 0.00 0.00 0.00 69 1011.9
20260903235235 87 118 6.0 10.0 0.00 0.00 0.00 68 1012.2
20260903234734 87 169 16.0 22.0 0.00 0.00 0.00 67 1012.0
20260903234231 87 159 8.0 12.0 0.00 0.00 0.00 67 1011.9
20260903233726 87 140 8.0 10.0 0.00 0.00 0.00 66 1011.9
20260903233222 88 168 16.0 21.0 0.00 0.00 0.00 66 1011.9
20260903232721 88 110 9.0 10.0 0.00 0.00 0.00 66 1011.8
20260903232217 89 122 9.0 10.0 0.00 0.00 0.00 65 1011.9
20260903231716 89 142 5.0 7.0 0.00 0.00 0.00 65 1011.8
20260903231212 89 171 10.0 15.0 0.00 0.00 0.00 64 1011.8
20260903230708 89 125 7.0 12.0 0.00 0.00 0.00 65 1011.6
20260903230208 88 113 19.0 22.0 0.00 0.00 0.00 64 1011.6
20260903225704 89 95 16.0 22.0 0.00 0.00 0.00 64 1011.7
20260903225200 89 168 13.0 17.0 0.00 0.00 0.00 64 1011.6
20260903224656 89 140 9.0 12.0 0.00 0.00 0.00 69 1011.6
20260903224152 90 166 6.0 10.0 0.00 0.00 0.00 70 1011.7
20260903223647 89 91 12.0 15.0 0.00 0.00 0.00 71 1011.6
20260903223146 89 118 11.0 12.0 0.00 0.00 0.00 70 1011.7
20260903222646 89 176 7.0 14.0 0.00 0.00 0.00 70 1011.4
20260903222144 89 122 14.0 21.0 0.00 0.00 0.00 70 1011.5
20260903221640 89 122 10.0 12.0 0.00 0.00 0.00 68 1011.6
20260903221138 89 91 12.0 17.0 0.00 0.00 0.00 70 1011.7
20260903220637 89 103 12.0 21.0 0.00 0.00 0.00 72 1011.6
20260903220132 89 104 10.0 12.0 0.00 0.00 0.00 71 1011.7
20260903215631 89 140 10.0 12.0 0.00 0.00 0.00 72 1011.6
20260903215126 90 106 13.0 19.0 0.00 0.00 0.00 70 1011.9
20260903214625 91 161 11.0 15.0 0.00 0.00 0.00 68 1011.7
20260903214120 92 96 10.0 14.0 0.00 0.00 0.00 65 1011.7
20260903213615 92 133 12.0 14.0 0.00 0.00 0.00 65 1011.7
20260903213111 92 147 15.0 19.0 0.00 0.00 0.00 64 1011.8
20260903212606 92 118 9.0 14.0 0.00 0.00 0.00 65 1011.9
20260903212101 92 116 12.0 17.0 0.00 0.00 0.00 65 1011.9
20260903211556 91 182 8.0 10.0 0.00 0.00 0.00 66 1011.9
20260903211053 90 104 12.0 17.0 0.00 0.00 0.00 67 1011.8
20260903210548 89 158 8.0 10.0 0.00 0.00 0.00 68 1012.0
20260903210044 90 156 13.0 15.0 0.00 0.00 0.00 67 1011.9
20260903205543 90 126 19.0 22.0 0.00 0.00 0.00 67 1012.1
20260903205037 91 107 17.0 21.0 0.00 0.00 0.00 66 1012.2
20260903204533 89 99 13.0 15.0 0.00 0.00 0.00 69 1012.4
20260903204029 90 173 12.0 15.0 0.00 0.00 0.00 69 1012.5
20260903203524 90 157 11.0 15.0 0.00 0.00 0.00 67 1012.6
20260903203024 89 108 9.0 14.0 0.00 0.00 0.00 71 1012.5
20260903202520 87 138 12.0 15.0 0.00 0.00 0.00 72 1012.7
20260903202015 87 123 19.0 21.0 0.00 0.00 0.00 73 1012.7
20260903201509 87 131 12.0 14.0 0.00 0.00 0.00 73 1012.8
20260903201008 87 114 8.0 10.0 0.00 0.00 0.00 73 1013.1
20260903200503 86 136 10.0 12.0 0.00 0.00 0.00 73 1013.1
20260903195958 86 105 9.0 14.0 0.00 0.00 0.00 73 1013.1
20260903195455 86 116 13.0 15.0 0.00 0.00 0.00 73 1013.0
20260903194949 86 117 11.0 14.0 0.00 0.00 0.00 75 1013.0
20260903194445 86 116 14.0 19.0 0.00 0.00 0.00 76 1013.0
20260903193940 86 102 12.0 14.0 0.00 0.00 0.00 78 1013.1
20260903193437 86 119 11.0 12.0 0.00 0.00 0.00 80 1013.2
20260903192931 85 100 11.0 15.0 0.00 0.00 0.00 82 1013.1
20260903192428 85 127 12.0 14.0 0.00 0.00 0.00 83 1013.4
20260903191923 84 130 12.0 14.0 0.00 0.00 0.00 85 1013.4
20260903191420 85 126 2.0 3.0 0.00 0.00 0.00 85 1013.4
20260903190919 85 129 8.0 10.0 0.00 0.00 0.00 85 1013.5
20260903190413 84 97 8.0 10.0 0.00 0.00 0.00 84 1013.6
20260903185913 84 125 12.0 17.0 0.00 0.00 0.00 84 1013.7
20260903185408 84 128 16.0 21.0 0.00 0.00 0.00 84 1013.8
20260903184903 84 129 5.0 5.0 0.00 0.00 0.00 85 1014.0
20260903184400 84 115 6.0 10.0 0.00 0.00 0.00 86 1014.0
20260903183855 84 103 11.0 12.0 0.00 0.00 0.00 86 1014.1
20260903183349 84 106 4.0 7.0 0.00 0.00 0.00 86 1014.3
20260903182848 85 121 2.0 3.0 0.00 0.00 0.00 84 1014.3
20260903182347 86 126 3.0 5.0 0.00 0.00 0.00 83 1014.5
20260903181842 85 79 4.0 7.0 0.00 0.00 0.00 82 1014.3
20260903181337 85 110 9.0 12.0 0.00 0.00 0.00 83 1014.3
20260903180832 85 88 10.0 14.0 0.00 0.00 0.00 83 1014.3
20260903180331 85 75 7.0 9.0 0.00 0.00 0.00 83 1014.4
20260903175826 85 123 11.0 14.0 0.00 0.00 0.00 83 1014.4
20260903175325 85 121 12.0 14.0 0.00 0.00 0.00 82 1014.4
20260903174820 85 133 7.0 9.0 0.00 0.00 0.00 83 1014.6
20260903174315 85 108 12.0 14.0 0.00 0.00 0.00 82 1014.5
20260903173814 85 127 9.0 12.0 0.00 0.00 0.00 83 1014.6
20260903173310 85 133 7.0 9.0 0.00 0.00 0.00 85 1014.8
20260903172806 85 122 7.0 10.0 0.00 0.00 0.00 85 1014.7
20260903172300 86 117 9.0 10.0 0.00 0.00 0.00 83 1015.0
20260903171749 85 127 10.0 12.0 0.00 0.00 0.00 81 1015.0
20260903171245 85 109 9.0 10.0 0.00 0.00 0.00 83 1015.1
20260903170743 84 133 5.0 7.0 0.00 0.00 0.00 83 1015.2
20260903170239 84 104 9.0 10.0 0.00 0.00 0.00 82 1014.9
20260903165737 84 145 5.0 5.0 0.00 0.00 0.00 85 1014.9
20260903165232 84 101 6.0 12.0 0.00 0.00 0.00 85 1015.1
20260903164726 84 122 9.0 12.0 0.00 0.00 0.00 85 1015.2
20260903164223 83 103 10.0 12.0 0.00 0.00 0.00 86 1015.2
20260903163722 83 87 12.0 14.0 0.00 0.00 0.00 87 1015.1
20260903163219 83 106 4.0 9.0 0.00 0.00 0.00 86 1015.2
20260903162714 84 138 7.0 10.0 0.00 0.00 0.00 82 1015.2
20260903162210 85 179 6.0 12.0 0.00 0.00 0.00 81 1015.2
20260903161706 85 125 6.0 7.0 0.00 0.00 0.00 80 1015.2
20260903161201 85 129 8.0 10.0 0.00 0.00 0.00 79 1015.2
20260903160657 85 126 7.0 9.0 0.00 0.00 0.00 78 1015.2
20260903160151 86 147 2.0 3.0 0.00 0.00 0.00 77 1015.3
20260903155649 86 166 3.0 3.0 0.00 0.00 0.00 76 1015.3
20260903155144 85 148 2.0 3.0 0.00 0.00 0.00 75 1015.2
20260903154640 85 176 1.0 2.0 0.00 0.00 0.00 75 1015.2
20260903154136 85 156 2.0 3.0 0.00 0.00 0.00 76 1015.2
20260903153632 85 106 1.0 2.0 0.00 0.00 0.00 77 1015.2
20260903153127 85 140 2.0 2.0 0.00 0.00 0.00 77 1015.2
20260903152623 85 154 4.0 5.0 0.00 0.00 0.00 77 1015.0
20260903152120 85 167 1.0 2.0 0.00 0.00 0.00 78 1014.9
20260903151619 85 210 4.0 5.0 0.00 0.00 0.00 78 1014.6
20260903151114 85 246 4.0 10.0 0.00 0.00 0.00 78 1014.5
20260903150614 85 182 7.0 9.0 0.00 0.00 0.00 78 1014.4
20260903150109 85 151 3.0 5.0 0.00 0.00 0.00 78 1014.4
20260903145608 84 162 7.0 10.0 0.00 0.00 0.00 79 1014.3
20260903145104 84 196 5.0 7.0 0.00 0.00 0.00 79 1014.1
20260903144602 84 252 7.0 9.0 0.00 0.00 0.00 79 1014.2
20260903144059 84 180 6.0 9.0 0.00 0.00 0.00 80 1014.1
20260903143555 84 188 4.0 9.0 0.00 0.00 0.00 80 1014.2
20260903143050 84 241 5.0 9.0 0.00 0.00 0.00 81 1014.0
20260903142545 83 210 7.0 9.0 0.00 0.00 0.00 82 1014.0
20260903142043 83 169 3.0 3.0 0.00 0.00 0.00 83 1013.9
20260903141537 82 169 2.0 3.0 0.00 0.00 0.00 85 1014.0
20260903141033 82 173 4.0 7.0 0.00 0.00 0.00 85 1014.1
20260903140528 82 138 5.0 5.0 0.00 0.00 0.00 86 1014.1
20260903140024 82 175 2.0 3.0 0.00 0.00 0.00 86 1014.2
20260903135519 81 157 2.0 3.0 0.00 0.00 0.00 87 1014.1
20260903135019 81 177 3.0 5.0 0.00 0.00 0.00 87 1014.2
20260903134519 81 164 0.0 0.0 0.00 0.00 0.00 88 1014.0
20260903134015 81 194 3.0 3.0 0.00 0.00 0.00 88 1014.2
20260903133512 81 160 2.0 5.0 0.00 0.00 0.00 88 1014.0
20260903133007 80 162 2.0 3.0 0.00 0.00 0.00 89 1014.2
20260903132503 80 159 5.0 9.0 0.00 0.00 0.00 89 1014.3
20260903132003 80 173 4.0 5.0 0.00 0.00 0.00 89 1014.3
20260903131458 80 193 2.0 3.0 0.00 0.00 0.00 89 1014.3
20260903130956 80 148 2.0 2.0 0.00 0.00 0.00 90 1014.1
20260903130452 80 172 1.0 3.0 0.00 0.00 0.00 90 1014.0
20260903125951 80 202 2.0 5.0 0.00 0.00 0.00 90 1014.2
20260903125450 80 159 2.0 2.0 0.00 0.00 0.00 90 1014.2
20260903124945 80 157 2.0 3.0 0.00 0.00 0.00 90 1014.1
20260903124440 79 173 4.0 5.0 0.00 0.00 0.00 91 1013.9
20260903123939 79 164 2.0 3.0 0.00 0.00 0.00 91 1013.9
20260903123434 79 155 4.0 7.0 0.00 0.00 0.00 91 1013.8
20260903122932 79 192 5.0 7.0 0.00 0.00 0.00 91 1013.7
20260903122427 79 172 2.0 3.0 0.00 0.00 0.00 91 1013.7
20260903121926 79 156 2.0 3.0 0.00 0.00 0.00 91 1013.7
20260903121421 79 176 3.0 5.0 0.00 0.00 0.00 91 1013.6
20260903120918 79 159 0.0 0.0 0.00 0.00 0.00 92 1013.7
20260903120416 79 170 2.0 3.0 0.00 0.00 0.00 92 1013.6
20260903115915 79 168 0.0 0.0 0.00 0.00 0.00 92 1013.6
20260903115415 78 164 0.0 2.0 0.00 0.00 0.00 92 1013.6
20260903114914 78 187 2.0 5.0 0.00 0.00 0.00 92 1013.6
20260903114410 78 156 0.0 0.0 0.00 0.00 0.00 92 1013.4
20260903113906 78 161 0.0 0.0 0.00 0.00 0.00 92 1013.5
20260903113401 78 158 2.0 3.0 0.00 0.00 0.00 92 1013.5
20260903112857 78 158 0.0 0.0 0.00 0.00 0.00 92 1013.6
20260903112352 78 130 2.0 5.0 0.00 0.00 0.00 92 1013.4
20260903111852 78 160 0.0 0.0 0.00 0.00 0.00 92 1013.5
20260903111351 77 159 0.0 0.0 0.00 0.00 0.00 92 1013.5
20260903110848 77 157 0.0 0.0 0.00 0.00 0.00 92 1013.7
20260903110343 77 145 0.0 0.0 0.00 0.00 0.00 92 1013.7
20260903105838 77 174 0.0 0.0 0.00 0.00 0.00 92 1013.5
20260903105333 77 146 0.0 0.0 0.00 0.00 0.00 92 1013.5
20260903104832 77 149 2.0 2.0 0.00 0.00 0.00 92 1013.6
20260903104327 77 167 0.0 0.0 0.00 0.00 0.00 92 1013.6
20260903103824 77 159 3.0 3.0 0.00 0.00 0.00 92 1013.4
20260903103320 77 145 1.0 2.0 0.00 0.00 0.00 92 1013.7
20260903102815 77 128 4.0 5.0 0.00 0.00 0.00 91 1013.7
20260903102309 77 131 3.0 3.0 0.00 0.00 0.00 91 1013.5
20260903101808 77 139 2.0 3.0 0.00 0.00 0.00 91 1013.7
20260903101304 76 136 0.0 0.0 0.00 0.00 0.00 91 1013.6
20260903100759 76 152 1.0 2.0 0.00 0.00 0.00 91 1013.6
20260903100253 76 140 2.0 2.0 0.00 0.00 0.00 91 1013.5
20260903095751 76 131 0.0 0.0 0.00 0.00 0.00 91 1013.6
20260903095245 76 138 1.0 2.0 0.00 0.00 0.00 91 1013.6
20260903094740 76 124 0.0 2.0 0.00 0.00 0.00 91 1013.6
20260903094236 76 142 0.0 0.0 0.00 0.00 0.00 90 1013.6
20260903093731 76 151 0.0 0.0 0.00 0.00 0.00 90 1013.5
20260903093226 76 161 1.0 2.0 0.00 0.00 0.00 91 1013.6
20260903092726 76 157 0.0 0.0 0.00 0.00 0.00 91 1013.3
20260903092220 76 152 0.0 0.0 0.00 0.00 0.00 90 1013.5
20260903091719 76 146 0.0 0.0 0.00 0.00 0.00 90 1013.7
20260903091214 76 125 0.0 0.0 0.00 0.00 0.00 90 1013.7
20260903090709 76 139 0.0 0.0 0.00 0.00 0.00 89 1013.6
20260903090208 76 140 0.0 0.0 0.00 0.00 0.00 89 1013.7
20260903085707 76 142 0.0 0.0 0.00 0.00 0.00 89 1013.5
20260903085203 76 127 0.0 0.0 0.00 0.00 0.00 88 1013.7
20260903084700 77 154 0.0 0.0 0.00 0.00 0.00 88 1013.6
20260903084155 77 149 0.0 0.0 0.00 0.00 0.00 88 1013.7
20260903083651 77 151 0.0 0.0 0.00 0.00 0.00 87 1013.6
20260903083151 77 159 0.0 0.0 0.00 0.00 0.00 87 1013.4
20260903082645 77 147 0.0 0.0 0.00 0.00 0.00 86 1013.5
20260903082141 77 168 1.0 2.0 0.00 0.00 0.00 86 1013.5
20260903081636 77 171 1.0 2.0 0.00 0.00 0.00 86 1013.7
20260903081132 77 165 1.0 2.0 0.00 0.00 0.00 86 1013.5
20260903080628 77 170 1.0 2.0 0.00 0.00 0.00 86 1013.6
20260903080126 77 160 2.0 2.0 0.00 0.00 0.00 86 1013.5
20260903075624 77 156 0.0 0.0 0.00 0.00 0.00 85 1013.8
20260903075120 77 155 0.0 0.0 0.00 0.00 0.00 85 1013.7
20260903074619 77 156 0.0 0.0 0.00 0.00 0.00 85 1013.8
20260903074113 77 157 0.0 0.0 0.00 0.00 0.00 85 1013.7
20260903073609 77 161 0.0 0.0 0.00 0.00 0.00 84 1013.7
20260903073105 77 152 0.0 0.0 0.00 0.00 0.00 84 1013.7
20260903072600 77 134 0.0 0.0 0.00 0.00 0.00 84 1013.8
20260903072056 78 150 0.0 0.0 0.00 0.00 0.00 83 1013.9
20260903071553 78 160 1.0 2.0 0.00 0.00 0.00 83 1014.0
20260903071048 78 154 0.0 0.0 0.00 0.00 0.00 83 1013.9
20260903070547 78 158 2.0 2.0 0.00 0.00 0.00 82 1013.6
20260903070043 78 153 1.0 2.0 0.00 0.00 0.00 83 1013.8
20260903065542 78 157 2.0 2.0 0.00 0.00 0.00 82 1013.8
20260903065037 78 162 2.0 3.0 0.00 0.00 0.00 82 1014.0
20260903064536 78 154 2.0 3.0 0.00 0.00 0.00 82 1013.9
20260903064033 78 138 3.0 3.0 0.00 0.00 0.00 82 1014.0
20260903063533 78 167 3.0 3.0 0.00 0.00 0.00 82 1014.0
20260903063029 78 169 4.0 5.0 0.00 0.00 0.00 83 1014.0
20260903062523 78 148 0.0 2.0 0.00 0.00 0.00 84 1013.8
20260903062019 78 156 2.0 3.0 0.00 0.00 0.00 84 1013.9
20260903061514 78 163 0.0 0.0 0.00 0.00 0.00 85 1014.0
20260903061009 78 186 2.0 3.0 0.00 0.00 0.00 85 1014.0
20260903060509 78 161 0.0 0.0 0.00 0.00 0.00 85 1014.0
20260903060004 78 168 2.0 3.0 0.00 0.00 0.00 85 1014.0
20260903055501 78 165 0.0 0.0 0.00 0.00 0.00 85 1014.0
20260903055000 78 156 0.0 0.0 0.00 0.00 0.00 85 1014.0
20260903054455 78 141 0.0 0.0 0.00 0.00 0.00 85 1014.0
20260903053951 78 157 0.0 0.0 0.00 0.00 0.00 85 1014.2
20260903053451 78 158 0.0 0.0 0.00 0.00 0.00 85 1014.0
20260903052948 78 145 0.0 0.0 0.00 0.00 0.00 85 1014.1
20260903052443 79 170 3.0 3.0 0.00 0.00 0.00 84 1014.2
20260903051939 78 160 2.0 3.0 0.00 0.00 0.00 85 1014.0
20260903051434 78 156 2.0 2.0 0.00 0.00 0.00 85 1014.1
20260903050930 78 139 3.0 3.0 0.00 0.00 0.00 86 1014.1
20260903050428 78 158 2.0 2.0 0.00 0.00 0.00 86 1014.1
20260903045922 78 148 0.0 0.0 0.00 0.00 0.00 87 1014.2
20260903045418 78 154 0.0 0.0 0.00 0.00 0.00 88 1014.2
20260903044915 78 157 0.0 0.0 0.00 0.00 0.00 88 1014.1
20260903044414 78 160 0.0 0.0 0.00 0.00 0.00 87 1014.1
20260903043911 79 151 2.0 3.0 0.00 0.00 0.00 87 1014.0
20260903043406 79 140 3.0 3.0 0.00 0.00 0.00 87 1013.9
20260903042904 79 117 4.0 5.0 0.00 0.00 0.00 86 1013.8
20260903042400 79 150 4.0 5.0 0.00 0.00 0.00 86 1013.9
20260903041856 79 138 3.0 3.0 0.00 0.00 0.00 86 1014.1
20260903041352 79 124 6.0 7.0 0.00 0.00 0.00 85 1013.9
20260903040848 79 129 9.0 10.0 0.00 0.00 0.00 84 1014.0
20260903040347 79 145 6.0 9.0 0.00 0.00 0.00 84 1013.9
20260903035843 80 158 2.0 3.0 0.00 0.00 0.00 83 1013.9
20260903035338 80 158 6.0 7.0 0.00 0.00 0.00 83 1014.0
20260903034833 80 115 6.0 7.0 0.00 0.00 0.00 83 1014.0
20260903034328 80 119 3.0 3.0 0.00 0.00 0.00 83 1014.1
20260903033823 80 101 7.0 9.0 0.00 0.00 0.00 83 1014.1
20260903033318 80 117 8.0 10.0 0.00 0.00 0.00 83 1014.1
20260903032818 80 130 10.0 14.0 0.00 0.00 0.00 83 1014.1
20260903032314 80 109 11.0 14.0 0.00 0.00 0.00 83 1014.1
20260903031809 80 113 7.0 9.0 0.00 0.00 0.00 83 1014.1
20260903031308 81 128 5.0 7.0 0.00 0.00 0.00 82 1013.9
20260903030805 81 138 9.0 10.0 0.00 0.00 0.00 82 1013.8
20260903030301 81 138 4.0 5.0 0.00 0.00 0.00 81 1013.7
20260903025756 81 130 6.0 7.0 0.00 0.00 0.00 80 1013.6
20260903025252 82 118 4.0 5.0 0.00 0.00 0.00 80 1013.4
20260903024752 82 134 5.0 7.0 0.00 0.00 0.00 80 1013.4
20260903024251 82 155 6.0 9.0 0.00 0.00 0.00 80 1013.4
20260903023747 82 113 8.0 10.0 0.00 0.00 0.00 79 1013.3
20260903023242 82 142 9.0 10.0 0.00 0.00 0.00 79 1013.4
20260903022737 82 140 7.0 10.0 0.00 0.00 0.00 79 1013.0
20260903022235 82 137 9.0 10.0 0.00 0.00 0.00 80 1013.3
20260903021730 82 110 9.0 14.0 0.00 0.00 0.00 80 1013.0
20260903021225 82 134 8.0 10.0 0.00 0.00 0.00 79 1012.8
20260903020725 83 142 8.0 10.0 0.00 0.00 0.00 78 1013.0